Showing default

NAVSPASUR ROD 1, 1515

Orbit data source: Space-Track

NAVSPASUR ROD 1, 1515 is a payload satellite owned by NRL (US) in LEO that was launched on Fri, 13 Aug 1965 UTC via a THOR ABLESTAR launch vehicle from the Air Force Western Test Range (AFWTR). Payload-class satellites include a variety of spacecraft equipped with specific instruments for various scientific and technological missions. These include communications satellites like Starlink; space stations such as the ISS; scientific satellites like the Hubble; Earth observation satellites from companies like Planet Labs, Umbra, and HawkEye 360; GPS; miniature CubeSats for education and research; and military/defense satellites.

Loading next visibility...
Identifier
1515, 1965-065G
Orbit
LEO
Country
Flag of USUS
Related business
Manufacturer
NRL
Mission
Spacecraft
Bus & Motor
LONG ROD, Unknown motor
Mass
3 kg wet, 3 kg dry
Launch date (UTC)
1965-08-13 (61 years ago)
Launch vehicle
THOR ABLESTAR
Launch site
Air Force Western Test Range (AFWTR)
Object type
Payload
Rocket body
Debris
Shape & HBR
SPHERE, 0.2 m
Radar Cross Section
Medium (>0.1 m² and <1 m²)

Expand to show TLE details & history
Last TLE update: 21 hours ago

TLE from 21 hours ago
0 NAVSPASUR ROD 1
1 01515U 65065G   26207.46690927  .00000456  00000-0  68377-3 0  9993
2 01515  90.0217 214.3436 0059654 198.3153 317.0597 13.51050937985621
Epoch: 2026-07-26T11:12Z
TLE epoch observation values (Epoch: 2026-07-26T11:12:20.960Z)
Latitude
25.12001°
Longitude
-77.89804°
Altitude
1,039.09 km
Speed
7.35 km/s
True Right ascension
02h 17m 24s
True Declination
24° 59' 35"
Sunlit
Object was in daylight at epoch
Visualization orbit readout
Latitude
Unknown
Longitude
Unknown
Altitude
Unknown
Speed
Unknown
Apparent Right ascension
Unknown
Apparent Declination
Unknown
Sunlit
N/A
Visualization observer readout
Local Sidereal Time
21:10:29
Azimuth
Unknown
Elevation
Unknown
Doppler factor
Unknown
Orbital elements
Apogee altitude
1,109.846 km
Perigee altitude
1,021.039 km
Semi-major axis
7,443.58 km
Eccentricity
0.00597
Inclination
90.0217°
RAAN
214.3436°
Arg. of periapsis
198.3153°
True anomaly
316.59147°
Mean anomaly
317.0597°
Eccentric anomaly
316.82584°
Mean motion
3.37964 °/min
Orbital period
106.52 mins
BSTAR
0.00068377
Loading maneuver chart data...
Computing Atmospheric mass density...

Documentation

Showing up to 5 results
|